Location: Mick
(40.8000°S, 175.2667°E)
Time: 06:32:48
(UTC+00:00)

Daily predictions for brighter satellites

Satellite Brightness Start Highest point End
(mag) Time Altitude Azimuth Time Altitude Azimuth Time Altitude Azimuth
Cosmos 2278 Rocket 4.3 13:50:49 21° S 13:50:49 21° S 13:52:45 10° SSE
Cosmos 1943 Rocket 4.1 14:01:56 26° SE 14:01:56 26° SE 14:04:28 10° SSE
Cosmos 2369 Rocket 4.4 14:03:53 18° E 14:03:53 18° E 14:06:34 10° ESE
SL-16 R/B 3.9 14:25:16 10° SE 14:30:42 31° E 14:31:35 29° ENE
ATLAS 2AS CENTAUR R/B 4.1 14:31:37 25° ENE 14:31:59 25° ENE 14:37:09 10° ESE
NOSS 3-4 (A) 4.1 14:44:34 70° SW 14:44:34 70° SW 14:52:33 10° SSE
NOSS 3-4 (C) 4.1 14:44:39 70° SW 14:44:39 70° SW 14:52:39 10° SSE
Cosmos 1656 Rocket 4.0 15:08:30 59° E 15:08:30 59° E 15:13:44 10° SSE
Cosmos 1331 Rocket 4.5 15:04:15 10° SSW 15:08:47 58° SSE 15:08:47 58° SSE
ISS -0.9 15:19:56 17° SSE 15:19:56 17° SSE 15:20:59 10° SE
Cosmos 1727 Rocket 3.9 15:31:30 66° WNW 15:31:59 68° W 15:38:16 10° S
CZ-2C R/B 4.5 15:38:57 14° SSW 15:38:57 14° SSW 15:39:36 10° SSW
Cosmos 1153 Rocket 4.4 15:33:54 10° SSW 15:40:03 61° W 15:40:41 58° WNW
Spot 4 Rocket 4.4 15:35:14 10° NNE 15:40:20 64° ESE 15:45:30 10° S
Cosmos 2100 Rocket 4.0 15:35:04 10° S 15:41:28 86° E 15:47:42 10° N
SL-4 R/B 2.9 15:43:17 40° S 15:43:17 40° S 15:46:24 10° SE
RESURS DK-1 2.6 15:43:38 62° S 15:43:38 62° S 15:47:11 10° SSE
Cosmos 1943 Rocket 3.6 15:43:27 23° SW 15:43:27 23° SW 15:47:33 10° S
Meteor 1-19 Rocket 4.4 15:38:09 10° S 15:44:06 74° E 15:49:47 10° NNE
Okean 1 3.9 15:40:19 10° S 15:44:20 56° E 15:46:10 29° NNE
CZ-2D R/B 3.9 15:47:00 54° SSW 15:47:00 54° SSW 15:50:31 10° SSW
Cosmos 2369 Rocket 2.2 15:45:41 57° W 15:46:12 59° WSW 15:51:49 10° SSE
Cosmos 1408 Rocket 3.4 15:48:38 81° WSW 15:48:38 81° WSW 15:53:06 10° S
Meteor 1-28 Rocket 4.4 15:46:10 10° S 15:48:31 33° SSW 15:48:31 33° SSW
CZ-2C R/B 4.0 15:51:04 10° NE 15:54:53 44° ESE 15:58:47 10° S
ARIANE 5 R/B 3.2 15:57:36 37° WSW 15:57:36 37° WSW 16:01:16 10° SSW
Meteor 1-29 3.8 15:57:59 40° S 15:57:59 40° S 16:00:16 10° S
CZ-2C R/B 2.6 15:57:58 27° NNE 15:57:58 27° NNE 16:01:19 10° ENE
H-2A R/B 3.2 15:58:01 10° NNE 16:01:46 62° ESE 16:05:35 10° S
CZ-4C R/B 4.3 16:02:17 10° SSW 16:06:41 23° SE 16:10:30 10° E
YAOGAN 11 4.1 16:04:07 10° S 16:08:29 60° WSW 16:09:24 48° WNW
YAOGAN 6 3.8 16:14:01 28° SW 16:14:01 28° SW 16:15:57 10° SSW
Cosmos 1378 2.9 16:08:59 10° S 16:12:42 78° W 16:14:24 30° N
Lacrosse 5 3.5 16:09:17 10° SSW 16:13:59 33° SSE 16:18:37 10° E
SL-16 R/B 2.9 16:08:32 10° S 16:14:22 43° WSW 16:16:40 31° WNW
Meteor 1-27 Rocket 4.4 16:10:53 10° SSW 16:15:47 32° W 16:15:50 32° W
Elektron 1 4.0 16:17:45 55° W 16:18:06 60° SW 16:21:02 10° SSE
Cosmos 1459 Rocket 4.1 16:14:41 10° SSW 16:20:40 51° W 16:26:40 10° NNW
Cosmos 1864 Rocket 4.4 16:15:01 10° S 16:21:13 80° W 16:27:22 10° N
Envisat 3.2 16:17:12 10° N 16:22:06 47° W 16:27:06 10° SSW
ATLAS 2AS CENTAUR R/B 2.7 16:19:04 29° WNW 16:22:20 59° SW 16:28:55 10° SSE
Cosmos 2228 Rocket 3.6 16:20:51 10° S 16:25:30 65° E 16:30:04 10° NNE
Cosmos 1515 Rocket 4.2 16:21:37 10° SSW 16:25:37 33° W 16:25:54 33° W
Meteor 1-18 Rocket 4.3 16:21:34 10° SSW 16:27:36 81° W 16:33:30 10° N
Cosmos 1805 Rocket 3.4 16:24:26 16° NNW 16:27:55 75° W 16:32:20 10° S
GPS 2-04 Rocket1 3.7 16:29:48 26° NNW 16:30:16 27° NNW 16:33:35 10° NE
Cosmos 1802 Rocket 4.1 16:24:32 10° SSW 16:30:49 55° W 16:37:05 10° NNW
Cosmos 2233 Rocket 4.2 16:26:33 10° S 16:32:53 79° E 16:39:12 10° N
Cosmos 1666 3.9 16:34:01 23° WSW 16:34:01 23° WSW 16:36:49 10° SSW
Cosmos 1818 4.0 16:29:02 10° SW 16:33:56 36° WNW 16:38:50 10° N
Cosmos 1833 4.2 16:34:13 10° SSW 16:39:44 57° WNW 16:45:13 10° N
Hubble Space Telescope 3.3 16:38:52 10° N 16:39:47 11° NNE 16:40:40 10° NNE
Cosmos 1725 Rocket 4.0 16:33:42 10° SSW 16:39:53 61° W 16:46:03 10° N
Landsat 4 4.5 16:38:10 10° NNE 16:41:51 56° ESE 16:45:36 10° S
Meteor 1-31 Rocket 4.0 16:43:42 10° NNE 16:47:29 47° ESE 16:51:20 10° S
Cosmos 1666 Rocket 4.0 16:43:23 10° N 16:47:49 69° E 16:52:17 10° SSE
Cosmos 2123 Rocket 4.4 16:42:54 10° NNW 16:48:54 43° WSW 16:54:58 10° S
Cosmos 1743 Rocket 4.3 16:47:02 19° NW 16:49:26 32° WSW 16:53:24 10° SSW
Helios 1A 3.7 16:49:54 10° S 16:53:44 34° WSW 16:56:56 13° NW
ISS -1.1 16:53:46 10° SW 16:55:35 14° S 16:57:25 10° SSE
PSLV R/B 4.2 16:52:09 10° NNW 16:55:58 33° W 16:59:49 10° SSW
CZ-2C R/B 3.7 16:51:55 10° NNW 16:56:19 29° W 17:00:36 10° SW
Cosmos 1867 4.2 16:55:28 16° WNW 16:59:20 37° SW 17:04:22 10° SSE
SJ-12 4.3 16:58:09 10° N 17:02:08 44° W 17:06:09 10° SSW
Sich 1 3.6 16:59:24 10° NW 17:03:24 36° WSW 17:07:28 10° S
ATLAS 3B R/B 2.7 16:58:59 10° SSW 17:05:35 83° SE 17:11:57 10° NE
NOAA 12 4.3 17:03:16 10° NNE 17:08:38 81° ESE 17:14:03 10° S
Cosmos 1707 Rocket 3.6 17:05:43 10° SSW 17:10:16 72° W 17:14:43 10° N
Cosmos 1743 3.0 17:07:18 10° N 17:11:10 76° E 17:15:07 10° S
Meteor 1-4 Rocket 3.7 17:08:23 10° N 17:11:56 48° E 17:15:29 10° SSE
Cosmos 614 Rocket 4.5 17:08:49 10° NW 17:13:44 41° WSW 17:18:44 10° S
Timation 1 Rocket 4.5 17:08:45 10° SSW 17:14:52 86° ESE 17:20:54 10° NNE
CZ-2C R/B 3.0 17:09:42 10° SSE 17:15:01 69° ENE 17:20:12 10° N
Meteor 2-4 Rocket 4.4 17:10:01 10° SSW 17:15:26 37° W 17:20:51 10° NNW
Cosmos 1470 Rocket 4.0 17:14:34 10° N 17:19:01 72° E 17:23:34 10° SSE
USA 215 3.3 17:13:41 10° SE 17:20:21 86° SW 17:26:57 10° NW
SL-4 R/B 4.0 17:20:06 10° SW 17:22:49 17° S 17:25:24 10° SSE
SL-08 R/B 4.2 17:18:22 10° SSE 17:22:59 53° E 17:27:30 10° N
Cosmos 1536 2.8 17:18:59 10° N 17:23:01 80° W 17:27:07 10° S
Cosmos 1066 Rocket 4.3 17:17:38 10° SSW 17:23:30 70° W 17:29:20 10° N
SJ-7 4.4 17:19:23 10° N 17:23:34 76° WNW 17:27:45 10° SSW
COSMOS 2487 3.2 17:21:21 10° SW 17:23:45 22° WNW 17:26:07 10° NNW
CZ-4B R/B 4.3 17:20:00 10° NNW 17:24:31 30° W 17:29:00 10° SW
OE (NEXTSAT) 4.1 17:23:03 10° WSW 17:26:17 73° NNW 17:29:31 10° ENE
Meteor 1-13 Rocket 4.4 17:23:54 10° SSW 17:29:56 82° W 17:35:47 10° N
